This is the latest recevied weather packets stored in our database for station/object KB0RPJ. If no packets are shown the sender has not sent any weather packets the latest 10 day(s).
| Time | Temp. | Humidity | Pressure | Rain* | Wind** | Luminosity | Snow |
|---|---|---|---|---|---|---|---|
| 1778080805 | 11.11° C | 43% | 1018.4 hPa | 0 mm | - | 539 W/m² | - |
| 1778080505 | 11.11° C | 45% | 1018.4 hPa | 0 mm | - | 411 W/m² | - |
| 1778080205 | 11.11° C | 47% | 1018.2 hPa | 0 mm | - | 350 W/m² | - |
| 1778079918 | 11.11° C | 46% | 1018.3 hPa | 0 mm | - | 362 W/m² | - |
| 1778079605 | 10.56° C | 47% | 1018.3 hPa | 0 mm | - | 368 W/m² | - |
| 1778079307 | 10.56° C | 48% | 1018.2 hPa | 0 mm | - | 344 W/m² | - |
| 1778079006 | 10.56° C | 48% | 1018.1 hPa | 0 mm | - | 291 W/m² | - |
| 1778078705 | 10.56° C | 48% | 1018.1 hPa | 0 mm | - | 256 W/m² | - |
| 1778078405 | 10.56° C | 49% | 1018.1 hPa | 0 mm | - | 248 W/m² | - |
| 1778078104 | 10° C | 50% | 1018 hPa | 0 mm | - | 246 W/m² | - |
| 1778077805 | 10° C | 52% | 1017.9 hPa | 0 mm | - | 274 W/m² | - |
| 1778077504 | 9.44° C | 51% | 1017.9 hPa | 0 mm | - | 286 W/m² | - |
| 1778077205 | 9.44° C | 51% | 1018 hPa | 0 mm | - | 240 W/m² | - |
| 1778076904 | 9.44° C | 53% | 1018 hPa | 0 mm | - | 288 W/m² | - |
| 1778076605 | 9.44° C | 53% | 1018.1 hPa | 0 mm | - | 197 W/m² | - |
| 1778076305 | 8.89° C | 53% | 1017.9 hPa | 0 mm | - | 165 W/m² | - |
| 1778076005 | 8.89° C | 53% | 1017.9 hPa | 0 mm | - | 180 W/m² | - |
| 1778075704 | 8.89° C | 56% | 1017.9 hPa | 0 mm | - | 183 W/m² | - |
| 1778075405 | 8.89° C | 55% | 1017.8 hPa | 0 mm | - | 179 W/m² | - |
| 1778075105 | 8.89° C | 54% | 1017.7 hPa | 0 mm | - | 175 W/m² | - |
| 1778074805 | 8.33° C | 56% | 1017.6 hPa | 0 mm | - | 184 W/m² | - |
| 1778074505 | 8.33° C | 57% | 1017.6 hPa | 0 mm | - | 175 W/m² | - |
| 1778074205 | 8.33° C | 59% | 1017.5 hPa | 0 mm | - | 156 W/m² | - |
| 1778073920 | 8.33° C | 59% | 1017.4 hPa | 0 mm | - | 159 W/m² | - |
| 1778073605 | 7.78° C | 60% | 1017.4 hPa | 0 mm | - | 160 W/m² | - |
* Rain latest hour (hover to see other rain measurements)
** Current wind speed in m/s (hover to see current wind gust speed)